Simultaneous Nadir Overpasses (SNOs) Predictions

Prediction of SNOs between GOES-15 and NOAA-20 Satellite Orbit:

Table of predicted SNOs for the next 14.0 days since TLE Epoch: 6/14/2024
Index Date Time (GOES-15) GOES-15 Lat,Lon NOAA-20 Lat,Lon Distance(km) Time Diff (sec)
1 06/15/2024 21:30:15 -0.11, 61.35 0.55, 58.37 339.44 80
2 06/16/2024 21:14:08 -0.10, 61.34 -0.47, 62.91 179.55 80
3 06/18/2024 09:33:20 0.13, 61.28 -0.69, 57.61 417.91 80
4 06/19/2024 09:17:13 0.12, 61.27 0.33, 62.16 100.62 80
5 06/21/2024 21:20:09 -0.15, 61.31 -0.16, 61.44 14.90 80
6 06/24/2024 09:20:33 0.16, 61.27 0.03, 60.68 66.23 80
7 06/25/2024 09:04:26 0.14, 61.27 1.06, 65.22 451.56 80
8 06/26/2024 21:23:29 -0.18, 61.31 0.11, 59.97 153.02 80
9 06/27/2024 21:07:21 -0.16, 61.32 -0.85, 64.52 364.67 80
